Weather in Gavrilov-Yam

Russia / Yaroslavl Oblast     57°18′14″N   39°51′13″E
temp.,
°C
wind,
m/s
gust,
m/s
humid.,
%
clouds,
%
prec.,
mm/h
press.,
hPa
HPBL,
m
2 march, tue
tue200:00+1w71495100 0.0 1008561
03:00+1w71498100 0.1 1006693
06:00+1wnw61298100 0.3 1004639
09:000wnw6139095 0.4 1004806
12:00+1wnw5109686 0.2 1004883
15:00+1nw6118893 0.4 10041010
18:00−2nw5138695 0.1 1005778
21:00−4nw5148992 0.2 1007478
3 march, wed
wed300:00−6nw6148733 0.1 1008478
03:00−8nw5139144 0.1 1011500
06:00−8nw5139298 0.0 1011472
09:00−8wnw5129179 0.0 1012470
12:00−3wnw6119160 0.1 1011815
15:00−1wnw7108980 0.3 10101036
18:00−2wnw6129198 0.1 1008672
21:00−3w6129498 0.2 1008718
4 march, thu
thu400:00−3wsw51193100 0.1 1005496
03:00−2sw61296100 0.4 1002541
06:000wsw71398100 1.4 997766
09:00+1w81489100 2.0 995991
12:000wnw71299100 0.4 994912
15:00−1wnw7127799 0.6 9951161
18:00−4wnw51187100 0.0 996399
21:00−7nnw389494 0.1 999177
5 march, fri
fri500:00−10nw369487 0.0 1002108
03:00−12wnw349544 0.0 100446
06:00−13nw339615 0.0 100643
09:00−12wnw24958 0.0 1007130
12:00−7w228530 0.0 1009348
15:00−6sw128663 0.0 1010415
18:00−8s2296100 0.1 101021
21:00−10wsw129591 0.1 101121
6 march, sat
sat600:00−12wsw11900 0.0 101121
03:00−13wsw22934 0.0 101121
06:00−12nw239691 0.1 101128
09:00−11wnw349587 0.1 1011209
12:00−9nw469296 0.1 1012467
15:00−8nw578898 0.4 1012745
18:00−12nw349098 0.1 101263
21:00−15w339368 0.1 101234